Simultaneous Nadir Overpasses (SNOs) Predictions

Prediction of SNOs between GOES-17 and AQUA Satellite Orbit:

Table of predicted SNOs for the next 14.0 days since TLE Epoch: 12/3/2022
Index Date Time (GOES-17) GOES-17 Lat,Lon AQUA Lat,Lon Distance(km) Time Diff (sec)
1 12/04/2022 10:32:54 -0.01,-137.32 -0.94,-133.06 485.60 80
2 12/04/2022 22:54:06 0.00,-137.31 -0.21,-138.19 99.79 80
3 12/06/2022 22:43:50 0.00,-137.30 0.47,-135.04 256.90 80
4 12/07/2022 11:04:53 -0.00,-137.30 0.60,-140.14 323.48 80
5 12/09/2022 10:49:17 0.00,-137.27 -0.09,-136.99 32.66 80
6 12/11/2022 10:36:21 0.01,-137.24 -0.73,-133.84 388.08 80
7 12/11/2022 22:57:32 -0.02,-137.23 -0.39,-138.97 197.80 80
8 12/13/2022 22:47:15 -0.02,-137.20 0.28,-135.82 157.35 80
9 12/14/2022 11:08:18 0.02,-137.19 0.84,-140.91 423.29 80
10 12/16/2022 10:55:21 0.02,-137.16 0.15,-137.76 68.58 80
